Back to catalog

ARIANE 5 R/B

LostMEO
NORAD 41863·ROCKET BODY·🇫🇷 France

Launched Nov 17, 2016 from Guiana Space Centre

Loading…

Next Passes (next 24 hours)

TLE

StaleSource: Space-Track

Epoch: Aug 4, 2026, 03:42 UTC

1 41863U 16069E   26216.15470780 -.00000003  00000-0  00000-0 0  9997
2 41863  55.5193  95.8612 0002888  14.6175 345.4689  1.73306866 61469

Track ARIANE 5 R/B in real time with AllMySat

Download on the App Store